User: anonymous   Login
Location: Bishop's University Astronomical Observatory
(45.3661°N, 71.8475°W)
Time: 23:55:32
(UTC-04:00)
Language:

Meteor 2-5 Rocket - Orbit

View from above orbital plane
View from above orbital plane
View from above satellite
View from above satellite

Ground track
Ground track

The orbit data is extracted from the following two-line orbital elements,

1 11608U 79095B   14304.46066900  .00000026  00000-0  86052-5 0  6844
2 11608 081.2166 062.2676 0053590 339.3704 087.5499 14.06028467795216
Epoch (UTC): 31 October 2014 11:03:21
Eccentricity: 0.0053590
inclination: 81.2166°
perigee height: 834 km
apogee height: 912 km
right ascension of ascending node: 62.2676°
argument of perigee: 339.3704°
revolutions per day: 14.06028467
mean anomaly at epoch: 87.5499°
orbit number at epoch: 79521

The dashed part of the orbit path shows where the satellite is in the earth's shadow,  

DLR